1365724831388,0.992415
1365724891388,0.988389
1365724951388,0.992628
1365725011388,0.987792
1365725071388,0.995610
1365725131388,0.998964
1365725191388,0.983355
1365725251388,0.995078
1365725311388,0.987902
1365725371388,0.986984
1365725431388,0.979963
1365725491388,0.998223
1365725551387,0.994531
1365725611387,0.992240
1365725671387,0.986490
1365725731387,0.987598
1365725791387,0.980298
1365725851387,0.980679
1365725911388,0.979602
1365725971388,0.980192
1365726031388,0.983599
1365726091388,0.984376
1365726151388,0.981685
1365726211387,0.971796
1365726271388,0.972837
1365726331388,0.973472
1365726391388,0.977031
1365726451388,0.972862
1365726511388,0.980689
1365726571388,0.975437
1365726631388,0.968545
1365726691388,0.974733
1365726751388,0.969421
1365726811388,0.967360
1365726871388,0.970836
1365726931387,0.966312
1365726991387,0.974508
1365727051387,0.970859
1365727111387,0.968002
1365727171387,0.963788
1365727231387,0.965823
1365727291388,0.961052
1365727351388,0.976847
1365727411388,0.966677
1365727471388,0.960067
1365727531388,0.958987
1365727591388,0.951706
1365727651388,0.960137
1365727711388,0.958514
1365727771388,0.952694
1365727831388,0.953400
1365727891388,0.960783
1365727951388,0.950960
1365728011388,0.945032
1365728071388,0.958562
1365728131388,0.946622
1365728191388,0.942553
1365728251387,0.951693
1365728311387,0.951930
1365728371387,0.939940
1365728431399,0.947710
1365728491399,0.949733
1365728551399,0.946980
1365728611399,0.944219
1365728671399,0.944153
1365728731399,0.944519
1365728791399,0.948835
1365728851399,0.935113
1365728911399,0.944771
1365728971399,0.955336
1365729031399,0.939305
1365729091399,0.936484
1365729151399,0.939484
1365729211399,0.938791
1365729271399,0.946249
1365729331399,0.945443
1365729391399,0.938942
1365729451399,0.934328
1365729511399,0.937721
1365729571399,0.951380
1365729631399,0.939960
1365729691399,0.937444
1365729751399,0.947974
1365729811399,0.945929
1365729871399,0.944103
1365729931399,0.941062
1365729991399,0.942063
1365730051399,0.940313
1365730111399,0.940779
1365730171399,0.938275
1365730231399,0.943744
1365730291399,0.943450
1365730351399,0.938527
1365730411399,0.948982
1365730471399,0.944938
1365730531399,0.938209
1365730591399,0.951279
1365730651399,0.946450
1365730711399,0.942079
1365730771399,0.941289
1365730831399,0.943577
1365730891399,0.949615
1365730951399,0.947416
1365731011399,0.945500
1365731071399,0.941386
1365731131399,0.937587
1365731191399,0.951738
1365731251399,0.936572
1365731311399,0.941061
1365731371399,0.943098
1365731431399,0.946417
1365731491399,0.943710
1365731551399,0.941374
1365731611399,0.943591
1365731671399,0.942793
1365731731399,0.946347
1365731791399,0.943188
1365731851399,0.941675
1365731911399,0.944750
1365731971399,0.937343
1365732031410,0.942365
1365732091410,0.933777
1365732151410,0.941420
1365732211410,0.942373
1365732271410,0.932702
1365732331410,0.935038
1365732391410,0.926887
1365732451410,0.936227
1365732511410,0.937317
1365732571410,0.928843
1365732631410,0.925879
1365732691410,0.926543
1365732751410,0.932334
1365732811410,0.929790
1365732871410,0.925949
1365732931410,0.930937
1365732991410,0.931047
1365733051410,0.933122
1365733111410,0.930360
1365733171410,0.931908
1365733231410,0.939859
1365733291410,0.927806
1365733351410,0.933100
1365733411410,0.928949
1365733471410,0.927668
1365733531410,0.930292
1365733591410,0.931713
1365733651410,0.930359
1365733711410,0.927102
1365733771410,0.940398
1365733831410,0.932362
1365733891410,0.943716
1365733951410,0.926099
1365734011410,0.928819
1365734071410,0.928973
1365734131410,0.926607
1365734191410,0.926892
1365734251410,0.934252
1365734311410,0.936348
1365734371410,0.935919
1365734431410,0.930257
1365734491410,0.927831
1365734551410,0.936768
1365734611410,0.933996
1365734671410,0.940178
1365734731410,0.948889
1365734791410,0.944602
1365734851410,0.937940
1365734911410,0.941427
1365734971410,0.945499
1365735031410,0.940436
1365735091410,0.941383
1365735151410,0.945138
1365735211410,0.942809
1365735271410,0.941102
1365735331410,0.945988
1365735391410,0.942679
1365735451410,0.941345
1365735511410,0.938456
1365735571410,0.939421
1365735631421,0.936215
1365735691421,0.939516
1365735751421,0.942716
1365735811421,0.937064
1365735871421,0.937813
1365735931421,0.931653
1365735991421,0.939553
1365736051421,0.936083
1365736111421,0.934739
1365736171421,0.934374
1365736231421,0.936728
1365736291421,0.942424
1365736351421,0.934231
1365736411421,0.939668
1365736471421,0.944882
1365736531421,0.935886
1365736591421,0.933817
1365736651421,0.925428
1365736711421,0.930619
1365736771421,0.921930
1365736831421,0.930285
1365736891421,0.931734
1365736951421,0.933280
1365737011421,0.927718
1365737071421,0.934798
1365737131421,0.931117
1365737191421,0.934350
1365737251421,0.943630
1365737311421,0.935424
1365737371421,0.930477
1365737431421,0.926263
1365737491421,0.931864
1365737551421,0.930081
1365737611421,0.930808
1365737671421,0.936266
1365737731421,0.933042
1365737791421,0.941232
1365737851421,0.933894
1365737911421,0.930461
1365737971421,0.927567
1365738031421,0.930636
1365738091421,0.938755
1365738151421,0.928706
1365738211421,0.928864
1365738271421,0.936991
1365738331421,0.931553
1365738391421,0.938245
1365738451421,0.931197
1365738511421,0.930099
1365738571421,0.926321
1365738631421,0.925064
1365738691421,0.926230
1365738751421,0.933808
1365738811421,0.932532
1365738871421,0.928898
1365738931421,0.930722
1365738991421,0.937834
1365739051421,0.929717
1365739111421,0.930419
1365739171421,0.934874
1365739231431,0.927055
1365739291431,0.930826
1365739351431,0.931382
1365739411431,0.928126
1365739471431,0.932222
1365739531431,0.932267
1365739591431,0.933645
1365739651431,0.944208
1365739711431,0.955835
1365739771431,0.957295
1365739831431,0.952885
1365739891431,0.958447
1365739951431,0.969526
1365740011431,0.969420
1365740071431,0.979886
1365740131431,0.981119
1365740191431,0.993575
1365740251431,0.991500
1365740311431,1.00311
1365740371431,1.00083
1365740431431,0.997209
1365740491431,1.00333
1365740551431,0.994050
1365740611431,0.984844
1365740671431,0.985722
1365740731431,0.983576
1365740791431,0.977721
1365740851431,0.969350
1365740911431,0.967411
1365740971431,0.973255
1365741031431,0.973045
1365741091431,0.960841
1365741151431,0.964463
1365741211431,0.954918
1365741271431,0.950652
1365741331431,0.955826
1365741391431,0.948469
1365741451431,0.949606
1365741511431,0.946270
1365741571431,0.944349
1365741631431,0.947481
1365741691431,0.950602
1365741751431,0.948102
1365741811431,0.942394
1365741871431,0.950999
1365741931431,0.941900
1365741991431,0.950355
1365742051431,0.948304
1365742111431,0.951246
1365742171431,0.951675
1365742231431,0.947095
1365742291431,0.949129
1365742351431,0.942072
1365742411431,0.950238
1365742471431,0.939493
1365742531431,0.949736
1365742591431,0.943599
1365742651431,0.950088
1365742711431,0.949874
1365742771431,0.948761
1365742831442,0.948591
1365742891442,0.954576
1365742951442,0.953403
1365743011442,0.954766
1365743071442,0.960972
1365743131442,0.963786
1365743191442,0.958191
1365743251442,0.956666
1365743311442,0.967151
1365743371442,0.965393
1365743431442,0.954632
1365743491442,0.960126
1365743551442,0.956340
1365743611442,0.964831
1365743671442,0.956760
1365743731442,0.958199
1365743791442,0.957228
1365743851442,0.956998
1365743911442,0.956062
1365743971442,0.947048
1365744031442,0.943819
1365744091442,0.949300
1365744151442,0.950893
1365744211442,0.949290
1365744271442,0.943618
1365744331442,0.945903
1365744391442,0.942984
1365744451442,0.948351
1365744511442,0.940960
1365744571442,0.949547
1365744631442,0.941523
1365744691442,0.936922
1365744751442,0.940161
1365744811442,0.947509
1365744871442,0.930068
1365744931442,0.946938
1365744991442,0.935119
1365745051442,0.940945
1365745111442,0.934533
1365745171442,0.938910
1365745231442,0.939900
1365745291442,0.937150
1365745351442,0.941482
1365745411442,0.932491
1365745471442,0.939143
1365745531442,0.942235
1365745591442,0.937825
1365745651442,0.937491
1365745711442,0.941853
1365745771442,0.951200
1365745831442,0.938897
1365745891442,0.948794
1365745951442,0.940506
1365746011442,0.948080
1365746071442,0.959177
1365746131442,0.957808
1365746191442,0.949263
1365746251442,0.956911
1365746311442,0.958884
1365746371442,0.949934
1365746431453,0.951282
1365746491453,0.948588
1365746551453,0.952192
1365746611453,0.953037
1365746671453,0.949032
1365746731453,0.946692
1365746791453,0.942911
1365746851453,0.949515
1365746911453,0.942929
1365746971453,0.957334
1365747031453,0.949405
1365747091453,0.945533
1365747151453,0.952263
1365747211453,0.953575
1365747271453,0.943172
1365747331453,0.939341
1365747391453,0.949667
1365747451452,0.932646
1365747511452,0.935223
1365747571452,0.945112
1365747631453,0.946979
1365747691453,0.946965
1365747751453,0.950628
1365747811453,0.947396
1365747871453,0.945673
1365747931453,0.943533
1365747991453,0.941662
1365748051453,0.944632
1365748111453,0.946598
1365748171453,0.943816
1365748231453,0.940291
1365748291453,0.938858
1365748351453,0.937542
1365748411453,0.934669
1365748471453,0.942708
1365748531453,0.941463
1365748591453,0.938464
1365748651453,0.943426
1365748711453,0.935727
1365748771452,0.936369
1365748831452,0.929250
1365748891452,0.949466
1365748951453,0.942361
1365749011453,0.942506
1365749071453,0.945984
1365749131453,0.936676
1365749191453,0.939542
1365749251453,0.945199
1365749311453,0.937059
1365749371453,0.941559
1365749431453,0.942156
1365749491453,0.939358
1365749551453,0.944073
1365749611453,0.946582
1365749671453,0.946845
1365749731453,0.951702
1365749791453,0.937932
1365749851453,0.945220
1365749911453,0.942035
1365749971453,0.951168
1365750031463,0.942457
1365750091463,0.940645
1365750151463,0.940286
1365750211463,0.938607
1365750271463,0.938836
1365750331463,0.945914
1365750391463,0.936488
1365750451463,0.944124
1365750511463,0.940889
1365750571463,0.945119
1365750631463,0.945903
1365750691463,0.943916
1365750751463,0.951814
1365750811463,0.950300
1365750871463,0.944399
1365750931463,0.943194
1365750991463,0.948069
1365751051463,0.949003
1365751111463,0.943859
1365751171463,0.945697
1365751231463,0.948853
1365751291463,0.948869
1365751351463,0.941916
1365751411463,0.955260
1365751471463,0.945419
1365751531463,0.948948
1365751591463,0.947785
1365751651463,0.955528
1365751711463,0.949341
1365751771463,0.960242
1365751831463,0.963737
1365751891463,0.962056
1365751951463,0.954401
1365752011463,0.957136
1365752071463,0.955672
1365752131463,0.961293
1365752191463,0.965955
1365752251463,0.966294
1365752311463,0.966186
1365752371463,0.968647
1365752431463,0.965322
1365752491463,0.970896
1365752551463,0.970325
1365752611463,0.964493
1365752671463,0.966072
1365752731463,0.968973
1365752791463,0.974831
1365752851463,0.970294
1365752911463,0.963165
1365752971463,0.955408
1365753031463,0.959512
1365753091463,0.975842
1365753151463,0.962073
1365753211463,0.965843
1365753271463,0.971803
1365753331463,0.968508
1365753391463,0.971633
1365753451463,0.970381
1365753511463,0.974846
1365753571463,0.970206
1365753631474,0.970082
1365753691474,0.962561
1365753751474,0.971788
1365753811474,0.976812
1365753871474,0.963478
1365753931474,0.963013
1365753991474,0.971582
1365754051474,0.968102
1365754111474,0.967470
1365754171474,0.973479
1365754231474,0.973779
1365754291474,0.965994
1365754351474,0.965439
1365754411474,0.966847
1365754471474,0.971758
1365754531474,0.966013
1365754591474,0.980554
1365754651474,0.974208
1365754711474,0.972071
1365754771474,0.974483
1365754831474,0.973742
1365754891474,0.966108
1365754951474,0.972224
1365755011474,0.973786
1365755071474,0.970601
1365755131474,0.974925
1365755191474,0.970729
1365755251474,0.978414
1365755311474,0.980913
1365755371474,0.973492
1365755431474,0.987589
1365755491474,0.985172
1365755551474,0.981362
1365755611474,0.980667
1365755671474,0.981758
1365755731474,0.983048
1365755791474,0.987276
1365755851474,0.982464
1365755911474,0.973209
1365755971474,0.976792
1365756031474,0.973267
1365756091474,0.961879
1365756151474,0.974282
1365756211474,0.977921
1365756271474,0.972576
1365756331474,0.968596
1365756391474,0.975956
1365756451474,0.974200
1365756511474,0.972219
1365756571474,0.970551
1365756631474,0.972167
1365756691474,0.971966
1365756751474,0.966802
1365756811474,0.976201
1365756871474,0.964958
1365756931474,0.968631
1365756991474,0.973209
1365757051474,0.972571
1365757111474,0.970917
1365757171474,0.971894
1365757231484,0.975104
1365757291484,0.978790
1365757351484,0.981749
1365757411484,0.977340
1365757471484,0.978180
1365757531484,0.976690
1365757591484,1.01344
1365757651484,0.981169
1365757711484,0.979244
1365757771484,0.978663
1365757831484,0.983204
1365757891484,0.986088
1365757951484,0.980271
1365758011484,0.972918
1365758071484,0.983390
1365758131484,0.985520
1365758191484,0.987910
1365758251484,0.984106
1365758311484,0.985606
1365758371484,0.992009
1365758431484,0.998801
1365758491484,0.997122
1365758551484,0.997181
1365758611484,1.00419
1365758671484,1.00175
1365758731484,1.00860
1365758791484,1.01086
1365758851484,1.02231
1365758911484,1.01506
1365758971484,1.00911
1365759031484,1.01088
1365759091484,1.01043
1365759151484,1.01185
1365759211484,1.01009
1365759271484,1.00936
1365759331484,1.01172
1365759391484,1.00479
1365759451484,1.00402
1365759511484,1.00627
1365759571484,1.00891
1365759631484,1.01322
1365759691484,1.00326
1365759751484,0.994106
1365759811484,0.996710
1365759871484,0.996298
1365759931484,1.00136
1365759991484,0.992950
1365760051484,0.984743
1365760111484,0.999229
1365760171484,0.999384
1365760231484,0.999643
1365760291484,1.00098
1365760351484,1.00066
1365760411484,0.991787
1365760471484,0.992185
1365760531484,1.00511
1365760591484,0.996685
1365760651484,1.00019
1365760711484,1.00254
1365760771484,0.997764
1365760831494,0.994762
1365760891494,0.999968
1365760951494,1.00072
1365761011494,1.01409
1365761071494,1.00896
1365761131494,1.01277
1365761191494,1.01920
1365761251494,1.02604
1365761311494,1.02006
1365761371494,1.02815
1365761431494,1.02119
1365761491494,1.02822
1365761551494,1.02053
1365761611494,1.02178
1365761671494,1.02420
1365761731494,1.02043
1365761791494,1.02794
1365761851494,1.00718
1365761911494,1.01365
1365761971494,1.00805
1365762031494,1.00894
1365762091494,1.01794
1365762151494,1.00612
1365762211494,1.00676
1365762271494,0.993694
1365762331494,0.994010
1365762391494,0.989743
1365762451494,0.986353
1365762511494,0.995913
1365762571494,0.989695
1365762631494,0.993344
1365762691494,0.985782
1365762751494,0.983407
1365762811494,0.985626
1365762871494,0.981510
1365762931494,0.985924
1365762991494,0.984876
1365763051494,0.986637
1365763111494,0.986752
1365763171494,0.982886
1365763231494,0.988274
1365763291494,0.986320
1365763351494,0.985920
1365763411494,0.982698
1365763471494,0.984104
1365763531494,0.983561
1365763591494,0.986652
1365763651494,0.994101
1365763711494,0.982257
1365763771494,0.980526
1365763831494,0.993173
1365763891494,0.986219
1365763951494,0.988735
1365764011494,0.979922
1365764071494,0.977568
1365764131494,0.980024
1365764191494,0.976558
1365764251494,0.971769
1365764311494,0.980801
1365764371494,0.964720
1365764431505,0.977613
1365764491505,0.979152
1365764551505,0.979991
1365764611505,0.968569
1365764671505,0.966813
1365764731505,0.969180
1365764791505,0.969135
1365764851505,0.966555
1365764911505,0.960102
1365764971505,0.962026
1365765031505,0.967504
1365765091505,0.973997
1365765151505,0.960706
1365765211505,0.970195
1365765271505,0.971541
1365765331505,0.963139
1365765391505,0.960903
1365765451505,0.959965
1365765511505,0.960676
1365765571505,0.964891
1365765631505,0.959726
1365765691505,0.969567
1365765751505,0.968754
1365765811505,0.960651
1365765871505,0.959306
1365765931505,0.967400
1365765991505,0.964803
1365766051505,0.959844
1365766111505,0.961685
1365766171505,0.962609
1365766231505,0.955003
1365766291505,0.956504
1365766351505,0.952069
1365766411505,0.961234
1365766471505,0.956006
1365766531505,0.957155
1365766591505,0.947228
1365766651505,0.955626
1365766711505,0.957084
1365766771505,0.963692
1365766831505,0.956268
1365766891505,0.956017
1365766951505,0.958295
1365767011505,0.955430
1365767071505,0.964295
1365767131505,0.966113
1365767191505,0.949803
1365767251505,0.963344
1365767311505,0.953352
1365767371505,0.956564
1365767431505,0.949286
1365767491505,0.947994
1365767551505,0.969386
1365767611505,0.956153
1365767671505,0.955820
1365767731505,0.952836
1365767791505,0.952877
1365767851505,0.953998
1365767911505,0.954694
1365767971505,0.957067
1365768031515,0.961425
1365768091515,0.950649
1365768151515,0.953550
1365768211515,0.954920
1365768271515,0.961599
1365768331515,0.964077
1365768391515,0.962816
1365768451515,0.965881
1365768511515,0.963058
1365768571515,0.968976
1365768631515,0.961237
1365768691515,0.966322
1365768751515,0.969609
1365768811515,0.963534
1365768871515,0.965700
1365768931515,0.968657
1365768991515,0.973631
1365769051515,0.966707
1365769111515,0.978289
1365769171515,0.966742
1365769231515,0.968500
1365769291515,0.966896
1365769351515,0.975230
1365769411515,0.972466
1365769471515,0.974278
1365769531515,0.979773
1365769591515,0.968269
1365769651515,0.980727
1365769711515,0.977519
1365769771515,0.976649
1365769831515,0.979648
1365769891515,0.980545
1365769951515,0.983440
1365770011515,0.982390
1365770071515,0.976401
1365770131515,0.971325
1365770191515,0.971373
1365770251515,0.971195
1365770311515,0.975910
1365770371515,0.976369
1365770431515,0.976339
1365770491515,0.974906
1365770551515,0.978855
1365770611515,0.975778
1365770671515,0.977087
1365770731515,0.975836
1365770791515,0.977506
1365770851515,0.979835
1365770911515,0.974027
1365770971515,0.979013
1365771031515,0.978959
1365771091515,0.974891
1365771151515,0.967610
1365771211515,0.981752
1365771271515,0.968326
1365771331515,0.965514
1365771391515,0.970476
1365771451515,0.969850
1365771511515,0.970452
1365771571515,0.966691
1365771631525,0.967467
1365771691525,0.971113
1365771751525,0.960842
1365771811525,0.960538
1365771871525,0.970287
1365771931525,0.963938
1365771991525,0.957276
1365772051525,0.960763
1365772111525,0.965858
1365772171525,0.956021
1365772231525,0.961491
1365772291525,0.962244
1365772351525,0.958192
1365772411525,0.956474
1365772471525,0.963930
1365772531525,0.969492
1365772591525,0.957420
1365772651525,0.957972
1365772711525,0.959093
1365772771525,0.952581
1365772831525,0.959950
1365772891525,0.952293
1365772951525,0.960886
1365773011525,0.960846
1365773071525,0.954202
1365773131525,0.951908
1365773191525,0.957757
1365773251525,0.959574
1365773311525,0.953412
1365773371525,0.953920
1365773431525,0.948008
1365773491525,0.950694
1365773551525,0.954248
1365773611525,0.946007
1365773671525,0.955162
1365773731525,0.956559
1365773791525,0.953204
1365773851525,0.952439
1365773911525,0.945981
1365773971525,0.948446
1365774031525,0.945057
1365774091525,0.945056
1365774151525,0.947493
1365774211525,0.954796
1365774271525,0.947600
1365774331525,0.945430
1365774391525,0.940443
1365774451525,0.942224
1365774511525,0.950055
1365774571525,0.947694
1365774631525,0.945675
1365774691525,0.946570
1365774751525,0.947143
1365774811525,0.944950
1365774871525,0.951050
1365774931525,0.952946
1365774991525,0.951719
1365775051525,0.943617
1365775111525,0.951169
1365775171525,0.948311
1365775231535,0.942577
1365775291535,0.950047
1365775351535,0.946766
1365775411535,0.950758
1365775471535,0.947553
1365775531535,0.945611
1365775591535,0.942473
1365775651535,0.944523
1365775711535,0.949081
1365775771535,0.939644
1365775831535,0.948122
1365775891535,0.944681
1365775951535,0.949599
1365776011535,0.939006
1365776071535,0.946894
1365776131535,0.945048
1365776191535,0.952128
1365776251535,0.950805
1365776311535,0.953818
1365776371535,0.946206
1365776431535,0.943922
1365776491535,0.955100
1365776551535,0.950758
1365776611535,0.955306
1365776671535,0.956792
1365776731535,0.956581
1365776791535,0.959101
1365776851535,0.953419
1365776911535,0.955884
1365776971535,0.954185
1365777031535,0.950768
1365777091535,0.957096
1365777151535,0.961619
1365777211535,0.965448
1365777271535,0.953644
1365777331535,0.967324
1365777391535,0.953029
1365777451535,0.961014
1365777511535,0.962091
1365777571535,0.952887
1365777631535,0.961188
1365777691535,0.961712
1365777751535,0.951788
1365777811535,0.949251
1365777871535,0.962494
1365777931535,0.956804
1365777991535,0.953168
1365778051535,0.958457
1365778111535,0.953302
1365778171535,0.954975
1365778231535,0.959899
1365778291535,0.960459
1365778351535,0.960261
1365778411535,0.955253
1365778471535,0.956352
1365778531535,0.963025
1365778591535,0.958170
1365778651535,0.960735
1365778711535,0.955584
1365778771535,0.956522
1365778831545,0.951905
1365778891545,0.947701
1365778951545,0.954595
1365779011545,0.956021
1365779071545,0.950578
1365779131545,0.953606
1365779191545,0.947961
1365779251545,0.962454
1365779311545,0.942466
1365779371545,0.941439
1365779431545,0.953966
1365779491545,0.949968
1365779551545,0.949134
1365779611545,0.953229
1365779671545,0.944002
1365779731545,0.942958
1365779791545,0.951913
1365779851545,0.946820
1365779911545,0.944994
1365779971545,0.952530
1365780031545,0.951209
1365780091545,0.949891
1365780151545,0.939520
1365780211545,0.949472
1365780271545,0.940652
1365780331545,0.945651
1365780391545,0.942745
1365780451545,0.951040
1365780511545,0.954398
1365780571545,0.953633
1365780631545,0.957010
1365780691545,0.950930
1365780751545,0.949323
1365780811545,0.948590
1365780871545,0.955109
1365780931545,0.953732
1365780991545,0.949002
1365781051545,0.956402
1365781111545,0.958872
1365781171545,0.953312
1365781231545,0.958192
1365781291545,0.951941
1365781351545,0.954190
1365781411545,0.968387
1365781471545,0.959397
1365781531545,0.956721
1365781591545,0.956673
1365781651545,0.957901
1365781711545,0.963082
1365781771545,0.956507
1365781831545,0.950487
1365781891545,0.956200
1365781951545,0.950818
1365782011545,0.961092
1365782071545,0.955402
1365782131545,0.955880
1365782191545,0.951973
1365782251545,0.948840
1365782311545,0.948194
1365782371545,0.942620
1365782431555,0.948644
1365782491555,0.942994
1365782551555,0.944556
1365782611555,0.948984
1365782671555,0.939544
1365782731555,0.947260
1365782791555,0.943069
1365782851555,0.943226
1365782911555,0.944255
1365782971555,0.938480
1365783031555,0.947489
1365783091555,0.939900
1365783151555,0.944438
1365783211555,0.942067
1365783271555,0.938996
1365783331555,0.939607
1365783391555,0.939111
1365783451555,0.935171
1365783511555,0.933877
1365783571555,0.937534
1365783631555,0.938101
1365783691555,0.940237
1365783751555,0.944446
1365783811555,0.947791
1365783871555,0.945204
1365783931555,0.941669
1365783991555,0.950021
1365784051555,0.945877
1365784111555,0.955623
1365784171555,0.941808
1365784231555,0.950312
1365784291555,0.948172
1365784351555,0.951469
1365784411555,0.946317
1365784471555,0.941583
1365784531555,0.950970
1365784591555,0.948809
1365784651555,0.941287
1365784711555,0.948993
1365784771555,0.944729
1365784831555,0.947789
1365784891555,0.937898
1365784951555,0.957098
1365785011555,0.937292
1365785071555,0.949096
1365785131555,0.945020
1365785191555,0.949398
1365785251555,0.949746
1365785311555,0.950956
1365785371555,0.950764
1365785431555,0.945616
1365785491555,0.945266
1365785551555,0.937127
1365785611555,0.937815
1365785671555,0.940156
1365785731555,0.944293
1365785791555,0.942026
1365785851555,0.952438
1365785911555,0.949956
1365785971555,0.951725
1365786031565,0.947067
1365786091565,0.949088
1365786151565,0.946753
1365786211565,0.949930
1365786271565,0.945115
1365786331565,0.958060
1365786391565,0.952347
1365786451565,0.960713
1365786511565,0.964703
1365786571565,0.958047
1365786631565,0.965211
1365786691565,0.970563
1365786751565,0.976157
1365786811565,0.984156
1365786871565,0.983682
1365786931565,0.982485
1365786991565,0.975458
1365787051565,0.977787
1365787111565,0.983902
1365787171565,0.983191
1365787231565,0.988873
1365787291565,0.983656
1365787351565,0.984610
1365787411565,0.982860
1365787471565,0.995665